Date,TemperatureHighF,TemperatureAvgF,TemperatureLowF,DewpointHighF,DewpointAvgF,DewpointLowF,HumidityHigh,HumidityAvg,HumidityLow,PressureMaxIn,PressureMinIn,WindSpeedMaxMPH,WindSpeedAvgMPH,GustSpeedMaxMPH,PrecipitationSumIn
2013-1-1,37.6,34.3,33.3,34.4,32.8,25.6,98,94,62,30.11,29.97,1,0,6,0.11
2013-1-2,33.5,30.3,25.4,32.5,23.8,18.9,97,78,57,30.24,30.04,2,1,9,0.02
2013-1-3,40.0,30.6,22.1,25.7,23.4,20.5,95,76,53,30.28,30.18,2,0,6,0.03
2013-1-4,33.4,31.7,30.6,25.0,23.8,22.1,76,73,68,30.34,30.27,3,1,11,0.00
2013-1-5,42.2,32.5,21.5,30.4,25.4,19.5,94,76,53,30.43,30.19,1,0,5,0.01
2013-1-6,43.1,39.2,34.1,35.1,30.9,28.7,90,73,61,30.26,30.03,5,1,13,0.00
2013-1-7,38.4,32.3,25.9,30.4,26.4,24.2,93,79,64,30.49,30.26,5,0,11,0.00
2013-1-8,53.1,34.9,22.5,37.1,26.3,20.5,95,75,34,30.42,30.27,2,0,7,0.00
2013-1-9,50.3,39.7,29.4,47.9,37.5,27.3,97,92,81,30.50,30.27,2,0,7,0.06
2013-1-10,49.7,41.0,34.5,43.9,38.7,34.0,99,92,73,30.56,30.22,1,0,9,0.00
2013-1-11,65.7,56.0,43.8,56.3,50.2,41.3,98,82,64,30.22,29.94,7,2,17,0.06
2013-1-12,70.3,57.7,45.5,61.3,54.3,45.2,99,89,69,30.09,29.90,4,0,5,0.00
2013-1-13,68.8,59.6,50.2,58.6,54.0,48.8,99,83,58,29.98,29.81,13,0,14,0.13
2013-1-14,61.1,44.0,35.7,58.9,42.3,34.6,98,93,85,30.33,29.89,11,1,14,0.40
2013-1-15,37.9,36.5,34.6,36.3,35.1,33.6,98,95,88,30.32,30.02,3,0,7,0.77
2013-1-16,40.4,37.2,35.0,40.1,36.5,34.4,99,97,95,30.07,29.86,8,0,19,0.51
2013-1-17,38.3,35.9,32.0,37.3,33.1,29.9,96,89,83,30.24,30.05,2,0,6,0.00
2013-1-18,39.0,30.8,23.1,30.1,20.4,14.3,93,67,40,30.55,30.24,5,1,14,0.00
2013-1-19,57.7,41.9,24.2,26.6,21.7,17.3,93,52,22,30.35,29.94,5,2,14,0.00
2013-1-20,49.3,43.0,30.0,33.7,21.5,9.9,64,44,24,30.12,29.93,8,2,23,0.00
2013-1-21,39.7,29.3,19.8,21.8,16.7,7.8,84,61,36,30.13,29.92,8,2,18,0.00
2013-1-22,22.7,16.1,10.7,8.1,2.3,-0.3,67,54,38,30.34,30.13,6,2,18,0.00
2013-1-23,25.0,17.5,9.4,19.0,8.3,-0.8,91,69,33,30.38,30.09,3,0,12,0.00
2013-1-24,24.8,19.3,10.4,19.1,11.9,4.0,92,74,46,30.57,30.08,4,1,12,0.00
2013-1-25,27.4,19.1,10.3,25.5,15.2,6.8,93,85,69,30.52,30.04,2,0,6,0.00
2013-1-26,31.0,28.3,25.6,26.4,23.8,21.7,94,84,71,30.44,30.16,3,0,9,0.00
2013-1-27,39.6,31.3,21.0,29.6,23.5,19.1,94,74,50,30.50,30.30,1,0,4,0.17
2013-1-28,59.3,45.9,33.1,52.9,42.7,29.2,98,89,65,30.30,30.07,2,0,10,0.47
2013-1-29,72.7,62.0,52.3,55.4,52.6,49.6,96,73,50,30.08,29.76,3,1,10,0.00
2013-1-30,72.8,61.6,48.7,64.5,54.2,44.1,95,78,56,29.76,29.28,10,3,25,1.22
2013-1-31,49.2,32.3,27.9,44.3,27.4,21.4,95,82,69,29.93,29.29,11,3,30,0.06
2013-2-1,28.8,17.3,9.4,27.3,10.5,5.7,94,75,61,30.43,29.83,8,2,17,0.00
2013-2-2,30.3,19.9,7.9,29.0,16.8,5.3,95,88,55,30.41,30.00,2,0,6,0.01
2013-2-3,31.1,28.4,24.9,29.1,25.1,20.1,95,87,80,30.11,29.87,5,1,15,0.00
2013-2-4,38.9,30.4,23.1,35.0,23.9,18.3,96,77,56,30.14,29.86,3,0,11,0.15
2013-2-5,41.8,38.3,36.0,39.8,37.2,34.9,98,96,91,29.93,29.84,2,0,9,0.36
2013-2-6,40.8,35.9,28.8,36.8,31.8,27.5,98,85,69,30.28,29.93,6,0,16,0.00
2013-2-7,55.9,40.9,28.9,40.0,33.5,27.7,97,78,44,30.28,29.93,4,1,10,0.00
2013-2-8,45.9,41.4,31.0,42.3,35.3,24.7,95,79,71,30.22,29.80,7,2,19,0.07
2013-2-9,40.4,32.3,28.1,25.4,21.1,19.0,80,64,43,30.41,30.22,4,1,10,0.00
2013-2-10,61.8,41.7,22.9,41.0,26.1,19.4,94,62,23,30.32,29.92,6,1,12,0.04
2013-2-11,65.0,56.3,45.7,51.7,38.2,23.6,81,54,26,29.96,29.73,7,3,23,0.01
2013-2-12,54.8,44.0,35.5,29.4,26.3,22.0,69,51,30,30.12,29.88,4,1,15,0.00
2013-2-13,44.1,35.5,31.6,37.3,31.7,25.6,96,86,57,29.91,29.63,3,0,7,0.35
2013-2-14,50.0,40.1,32.5,34.9,31.2,28.3,93,72,47,29.99,29.89,4,1,10,0.00
2013-2-15,41.9,36.1,33.1,34.5,33.0,30.0,96,89,70,30.06,29.92,2,0,9,0.14
2013-2-16,33.0,29.1,23.9,32.0,24.5,15.2,96,83,66,30.05,29.95,6,1,15,0.00
2013-2-17,26.4,20.9,16.0,16.1,11.4,4.5,87,67,54,30.31,30.00,6,2,15,0.00
2013-2-18,56.2,34.3,11.6,35.5,21.5,9.2,92,64,37,30.35,29.90,5,1,12,0.02
2013-2-19,50.1,43.1,31.0,41.9,30.7,21.1,88,63,40,29.99,29.73,10,4,19,0.04
2013-2-20,33.9,27.9,21.2,21.5,17.0,12.3,78,64,46,30.28,29.99,5,3,16,0.00
2013-2-21,34.9,25.6,17.2,20.4,16.6,12.5,86,69,53,30.36,30.18,2,0,7,0.00
2013-2-22,57.6,43.0,29.7,42.9,35.2,19.8,92,75,58,30.22,29.93,4,1,11,0.01
2013-2-23,57.7,46.3,37.7,44.8,39.1,33.5,95,78,51,29.94,29.80,3,0,7,0.00
2013-2-24,45.6,36.8,28.0,34.2,27.5,21.4,93,71,43,30.16,29.85,8,2,17,0.01
2013-2-25,49.3,33.8,21.2,26.7,22.6,19.2,93,67,36,30.20,29.99,2,0,7,0.00
2013-2-26,55.2,43.3,29.1,44.2,36.6,24.6,89,77,59,30.00,29.48,7,2,17,0.15
2013-2-27,46.9,41.9,34.7,44.1,37.3,32.5,94,84,65,29.73,29.52,4,1,12,0.12
2013-2-28,34.9,34.2,33.3,33.6,31.8,29.7,96,91,84,29.85,29.68,3,1,12,0.04
2013-3-1,35.2,33.4,30.9,33.6,30.6,24.8,97,90,78,29.97,29.84,2,0,6,0.08
2013-3-2,31.8,29.5,27.8,26.9,25.0,22.1,91,83,72,29.99,29.92,3,2,10,0.00
2013-3-3,29.6,27.3,25.7,25.0,22.7,18.6,93,83,70,30.06,29.97,4,1,11,0.00
2013-3-4,42.3,31.9,24.9,25.0,20.9,18.3,87,66,39,30.18,30.05,3,1,11,0.05
2013-3-5,52.2,40.3,29.0,41.5,33.1,24.8,92,76,62,30.07,29.52,3,0,9,0.39
2013-3-6,41.1,34.0,30.9,38.7,32.2,29.6,96,93,89,30.15,29.59,6,1,18,0.14
2013-3-7,39.1,36.1,33.8,34.4,32.5,31.0,93,87,79,30.29,30.14,3,1,10,0.04
2013-3-8,46.8,38.3,31.0,31.8,28.3,26.0,86,68,47,30.39,30.27,5,1,13,0.00
2013-3-9,64.6,43.9,25.2,34.7,29.5,23.5,95,63,27,30.39,30.13,2,0,5,0.00
2013-3-10,76.3,56.1,39.3,42.3,34.0,30.4,83,50,19,30.14,29.96,6,1,8,0.00
2013-3-11,62.1,59.7,55.5,51.6,39.6,31.4,86,49,35,29.96,29.69,9,3,21,0.02
2013-3-12,55.4,41.5,38.4,51.6,37.0,31.1,95,84,72,30.03,29.73,6,1,13,0.20
2013-3-13,38.6,37.8,37.0,33.7,32.8,32.0,87,82,78,30.01,29.97,2,0,4,0.00
2013-3-14,44.6,33.1,26.1,23.4,19.7,15.9,83,60,33,30.33,30.16,6,2,15,0.00
2013-3-15,59.6,41.9,24.2,41.3,28.7,19.5,89,62,40,30.20,29.82,5,1,10,0.00
2013-3-16,62.8,51.9,43.2,56.0,46.8,40.7,97,83,64,29.89,29.59,8,2,17,0.21
2013-3-17,47.9,37.8,33.6,42.2,35.4,32.7,97,91,80,30.11,29.89,3,1,9,0.21
2013-3-18,53.9,44.3,34.2,45.6,39.0,33.4,98,82,72,30.05,29.69,5,2,14,0.69
2013-3-19,54.4,46.2,38.3,47.7,28.0,8.8,96,55,22,30.02,29.68,11,4,29,0.05
2013-3-20,49.7,39.3,32.0,26.9,18.0,12.6,81,43,27,30.04,29.77,10,3,24,0.00
2013-3-21,31.9,29.6,27.0,22.2,19.4,17.1,80,66,57,29.89,29.88,6,4,13,0.00
2013-3-22,44.8,31.9,22.9,18.3,15.3,12.9,68,52,29,30.06,29.96,5,1,12,0.00
2013-3-23,51.7,36.4,22.7,26.3,20.8,17.8,89,57,27,30.07,29.92,3,1,7,0.00
2013-3-24,44.9,36.5,30.5,37.6,30.2,23.4,97,79,51,29.91,29.41,3,1,7,0.62
2013-3-25,38.9,35.5,33.4,34.7,32.8,30.8,95,90,81,29.79,29.42,5,2,15,0.15
2013-3-26,42.2,35.4,32.9,37.2,33.2,30.9,97,92,77,30.14,29.79,6,1,17,0.19
2013-3-27,42.0,36.5,32.9,34.5,30.5,28.1,93,79,62,30.23,30.13,6,2,15,0.00
2013-3-28,46.7,40.0,31.8,30.8,28.0,26.0,80,63,46,30.27,30.20,5,2,12,0.00
2013-3-29,55.6,45.7,36.8,32.6,29.5,25.0,82,56,32,30.29,30.15,5,1,14,0.00
2013-3-30,61.1,48.2,36.1,34.7,30.7,26.3,88,55,27,30.23,29.96,3,1,9,0.00
2013-3-31,52.6,47.6,41.5,51.4,44.6,33.5,97,90,65,29.96,29.74,3,0,10,0.24
2013-4-1,51.4,45.2,37.2,45.9,37.1,20.3,96,75,45,30.04,29.76,9,2,20,0.04
2013-4-2,48.0,37.2,28.9,26.2,18.9,13.8,88,50,28,30.21,30.04,7,2,14,0.00
2013-4-3,50.1,37.7,24.8,25.0,17.9,10.0,88,50,22,30.34,30.20,7,2,16,0.00
2013-4-4,56.2,41.4,28.5,38.9,23.1,14.4,93,53,22,30.34,29.97,4,1,10,0.06
2013-4-5,63.8,50.1,40.1,41.5,34.4,23.8,97,63,26,30.07,29.89,7,2,16,0.02
2013-4-6,70.5,53.0,32.4,34.3,24.1,15.2,81,37,13,30.22,29.99,6,2,13,0.00
2013-4-7,77.1,65.1,56.0,46.7,38.8,31.4,62,39,29,30.01,29.88,6,3,15,0.00
2013-4-8,81.6,65.6,48.3,51.9,47.5,45.3,91,56,29,30.02,29.86,5,1,14,0.00
2013-4-9,85.4,70.3,54.4,57.0,52.0,47.6,89,57,30,30.06,29.89,5,1,11,0.00
2013-4-10,90.0,73.1,55.0,58.6,53.1,49.9,85,53,30,29.97,29.77,5,2,13,0.00
2013-4-11,70.0,67.9,64.9,54.8,54.3,53.6,68,62,57,29.79,29.75,2,1,7,0.00
2013-4-12,76.3,62.7,52.7,63.0,49.9,35.2,94,66,36,29.84,29.45,8,3,22,0.40
2013-4-13,67.0,54.2,44.2,38.8,34.6,25.6,77,51,21,29.98,29.83,8,3,19,0.00
2013-4-14,73.6,57.1,38.4,44.8,37.1,32.8,90,52,27,30.10,29.89,3,1,7,0.00
2013-4-15,66.7,61.1,54.4,54.7,50.3,41.5,92,69,43,30.06,29.91,6,2,12,0.06
2013-4-16,85.2,71.3,60.8,60.7,55.4,52.0,94,60,37,30.14,29.97,14,2,27,0.14
2013-4-17,77.2,66.1,58.8,62.6,60.3,58.2,99,83,54,30.18,30.01,3,1,6,0.02
2013-4-18,86.7,73.1,56.9,60.3,56.6,52.0,98,60,37,30.02,29.74,10,4,17,0.01
2013-4-19,74.5,62.2,46.4,62.8,51.4,35.2,92,69,53,29.89,29.49,9,4,21,0.12
2013-4-20,58.3,47.7,39.2,36.7,29.6,23.5,75,52,28,30.35,29.90,7,3,17,0.01
2013-4-21,61.2,47.3,32.0,33.1,27.0,21.4,93,51,23,30.49,30.35,3,1,9,0.00
2013-4-22,72.5,56.5,39.0,38.9,31.1,22.0,87,43,21,30.37,30.14,4,1,10,0.00
2013-4-23,75.8,59.9,38.7,41.9,34.7,24.2,85,43,22,30.18,29.92,4,1,10,0.00
2013-4-24,79.1,61.6,43.8,57.6,47.9,39.6,91,63,36,30.16,29.74,9,2,23,0.15
2013-4-25,62.5,48.4,35.2,39.9,34.2,27.6,97,64,27,30.31,30.16,4,1,12,0.00
2013-4-26,66.8,52.2,35.5,41.2,33.7,28.1,95,56,24,30.42,30.29,3,1,9,0.00
2013-4-27,75.6,59.3,42.3,46.1,39.7,32.0,89,54,24,30.31,30.11,4,1,10,0.00
2013-4-28,67.8,60.9,54.8,52.7,49.9,45.7,91,68,55,30.09,29.89,5,2,10,0.25
2013-4-29,69.2,61.1,54.3,56.6,53.3,49.8,94,76,56,29.97,29.89,3,1,10,0.01
2013-4-30,81.3,65.2,49.7,58.4,52.0,48.5,99,68,33,30.08,29.95,3,1,10,0.00
2013-5-1,81.6,67.8,51.5,55.6,49.6,38.0,96,57,30,30.20,30.07,3,1,9,0.00
2013-5-2,79.2,66.8,49.5,54.2,47.4,39.0,87,52,34,30.23,30.09,2,1,7,0.00
2013-5-3,78.7,64.0,45.4,47.4,42.2,30.3,94,51,18,30.15,30.04,6,2,15,0.00
2013-5-4,73.0,62.0,49.1,44.7,38.5,24.8,66,44,17,30.07,29.95,3,1,11,0.00
2013-5-5,76.9,62.9,46.9,48.0,39.8,24.6,83,48,15,30.03,29.88,5,1,12,0.00
2013-5-6,70.5,61.5,55.1,57.1,52.3,46.8,96,73,51,29.92,29.85,4,1,18,0.26
2013-5-7,61.2,57.1,54.6,59.9,55.8,54.0,99,96,86,29.91,29.84,1,0,3,0.52
2013-5-8,67.6,59.0,54.2,59.0,54.9,48.8,99,88,53,29.94,29.82,2,0,4,0.12
2013-5-9,76.3,63.9,54.1,59.5,56.7,53.3,99,80,48,30.00,29.90,2,0,6,0.00
2013-5-10,79.6,64.0,55.4,65.9,59.4,54.7,100,87,46,29.98,29.80,3,0,12,0.18
2013-5-11,66.5,62.1,54.4,63.3,58.7,49.3,98,89,77,29.86,29.76,4,1,10,0.43
2013-5-12,56.4,51.0,42.7,50.5,38.4,31.5,92,64,41,30.08,29.84,4,1,11,0.00
2013-5-13,55.7,46.9,40.1,40.4,36.7,29.5,95,70,39,30.16,30.05,3,0,10,0.00
2013-5-14,71.0,53.8,36.3,49.1,39.8,32.5,99,66,26,30.18,29.87,2,0,9,0.00
2013-5-15,88.0,74.8,57.1,60.9,55.1,48.7,77,53,31,29.89,29.73,3,1,10,0.00
2013-5-16,74.6,72.9,71.5,53.9,52.5,51.2,53,49,45,29.81,29.80,1,0,3,0.00
2013-5-17,78.6,67.4,59.6,65.7,62.0,59.3,100,85,57,30.05,29.96,2,0,4,0.00
2013-5-18,77.5,67.6,60.0,67.1,62.8,58.9,98,86,61,30.04,29.95,2,0,4,0.07
2013-5-19,78.7,69.5,62.2,68.5,64.0,61.6,99,84,62,30.01,29.88,3,0,4,0.00
2013-5-20,81.6,71.1,60.8,70.8,65.6,59.9,98,84,64,30.00,29.90,2,0,5,0.00
2013-5-21,84.2,73.5,62.9,70.8,66.8,62.6,100,82,56,29.96,29.79,2,0,7,0.00
2013-5-22,85.4,69.9,61.6,68.6,65.0,60.7,98,86,53,29.87,29.75,3,0,7,0.09
2013-5-23,78.8,67.3,62.4,66.4,63.1,59.0,99,88,52,29.83,29.73,3,0,9,0.10
2013-5-24,62.3,51.0,45.2,59.5,44.2,38.2,96,79,53,30.27,29.83,4,1,13,0.10
2013-5-25,62.9,49.6,37.1,44.5,39.9,36.6,99,73,41,30.34,30.20,3,1,10,0.00
2013-5-26,67.7,54.0,40.5,47.8,40.2,33.1,99,66,29,30.29,30.19,2,0,6,0.00
2013-5-27,70.2,54.8,41.0,59.5,49.7,39.7,97,84,64,30.24,30.04,1,0,4,0.00
2013-5-28,82.8,69.9,57.1,65.6,60.0,56.0,97,74,47,30.08,29.94,2,0,6,0.00
2013-5-29,85.3,72.5,59.5,66.0,62.5,58.1,97,74,44,30.10,29.99,2,0,6,0.00
2013-5-30,86.1,73.5,60.2,70.1,65.2,59.3,99,78,52,30.16,30.00,1,0,4,0.00
2013-5-31,87.8,75.4,61.0,68.1,63.5,58.9,99,71,38,30.09,29.93,1,0,4,0.00
2013-6-1,87.5,77.2,65.7,71.6,66.3,63.1,94,71,48,29.96,29.78,2,0,6,0.00
2013-6-2,78.3,71.3,65.1,68.7,65.0,60.9,97,82,58,29.87,29.77,3,0,11,0.11
2013-6-3,74.0,67.0,61.4,66.5,62.7,57.6,100,87,68,29.97,29.82,3,0,7,0.00
2013-6-4,74.8,64.4,55.1,57.9,52.3,40.9,98,69,30,30.08,29.97,2,0,7,0.00
2013-6-5,83.8,68.2,52.1,66.4,59.0,50.5,96,75,53,30.04,29.84,2,0,4,0.00
2013-6-6,76.2,69.1,64.4,69.7,66.2,63.0,99,91,74,29.90,29.69,2,0,4,0.25
2013-6-7,67.4,65.7,61.2,67.0,65.2,60.1,100,98,93,29.81,29.67,2,0,5,0.43
2013-6-8,75.7,65.9,58.5,63.3,60.6,58.2,100,85,59,30.04,29.82,2,0,5,0.09
2013-6-9,84.7,71.2,59.5,69.1,63.4,59.2,100,80,44,30.07,29.93,2,0,5,0.04
2013-6-10,75.1,69.0,65.9,71.0,66.9,63.7,99,93,82,29.97,29.76,4,0,10,0.20
2013-6-11,78.9,70.1,64.6,68.4,65.5,63.0,98,86,64,29.88,29.80,2,0,6,0.08
2013-6-12,70.3,68.3,66.8,67.3,66.5,65.6,97,94,89,29.88,29.85,0,0,3,0.01
2013-6-23,86.2,75.9,66.0,71.9,68.3,65.4,99,80,52,30.11,30.00,1,0,4,0.00
2013-6-24,86.2,75.9,65.5,73.3,69.4,64.9,99,82,57,30.11,29.98,1,0,5,0.20
2013-6-25,85.6,76.3,68.0,73.3,70.5,67.7,100,84,62,30.05,29.88,1,0,5,0.00
2013-6-26,81.8,74.9,68.5,73.2,70.6,67.9,99,87,69,29.89,29.77,1,0,5,0.01
2013-6-27,73.1,69.8,68.2,71.9,68.9,67.6,100,97,86,29.79,29.65,3,0,7,0.27
2013-6-28,82.0,71.6,66.2,74.0,68.8,65.7,100,92,65,29.66,29.48,3,0,11,0.04
2013-6-29,78.8,70.1,61.4,70.5,65.6,61.3,100,87,65,29.64,29.53,2,0,5,0.00
2013-6-30,85.6,74.2,63.0,70.4,66.3,61.7,100,79,46,29.73,29.62,1,0,5,0.02
2013-7-1,82.0,71.9,67.5,73.9,69.0,66.4,100,91,67,29.87,29.72,4,0,11,0.18
2013-7-2,81.4,73.9,67.7,73.4,69.9,67.7,100,88,69,30.00,29.85,1,0,3,0.01
2013-7-3,81.7,74.1,66.7,72.7,69.3,66.0,99,86,71,30.10,29.99,1,0,5,0.00
2013-7-4,86.4,74.8,67.5,75.6,71.1,67.2,100,89,61,30.17,30.02,1,0,3,0.01
2013-7-5,84.3,75.8,68.9,75.7,71.8,68.6,100,88,64,30.10,30.04,2,0,5,0.07
2013-7-6,87.9,76.9,68.0,74.1,69.9,64.9,100,81,48,30.11,29.97,2,0,5,0.00
2013-7-7,76.5,71.7,68.7,72.6,69.7,68.1,100,94,83,30.07,29.99,3,0,6,0.11
2013-7-8,82.2,72.4,63.4,73.2,68.7,62.7,100,89,69,30.10,30.02,3,0,7,0.00
2013-7-9,85.3,76.1,70.0,76.1,72.1,69.8,100,89,64,30.06,29.94,1,0,6,0.01
2013-7-10,86.2,74.8,67.1,76.8,71.3,65.5,100,90,68,29.99,29.80,4,0,11,0.03
2013-7-11,67.6,67.4,67.2,67.3,67.1,66.8,99,99,98,29.86,29.83,1,0,3,0.00
2013-7-13,82.0,71.5,62.1,74.1,67.6,61.8,100,88,65,30.12,29.96,2,0,6,0.00
2013-7-14,86.8,76.8,66.9,71.6,69.4,66.6,100,80,55,30.21,30.10,2,0,5,0.00
2013-7-15,88.0,77.0,65.6,74.7,70.4,65.3,100,82,55,30.28,30.17,1,0,5,0.00
2013-7-16,88.8,79.1,69.7,76.5,72.8,69.4,100,83,57,30.27,30.17,1,0,5,0.00
2013-7-17,88.5,79.6,72.8,78.3,75.1,72.5,100,87,64,30.23,30.07,2,0,7,0.00
2013-7-18,90.1,80.5,73.4,77.4,75.3,72.9,100,86,63,30.11,29.97,1,0,5,0.00
2013-7-19,88.4,76.2,71.3,78.8,73.8,67.7,100,93,69,29.99,29.85,2,0,9,0.02
2013-7-20,87.9,75.5,69.7,75.9,72.0,69.4,100,90,61,29.90,29.80,4,0,13,0.02
2013-7-21,80.7,71.8,68.7,74.3,70.6,68.1,100,97,74,29.95,29.85,3,0,9,0.18
2013-7-22,81.8,74.5,70.2,75.9,72.2,69.8,100,93,77,29.88,29.72,2,0,5,0.20
2013-7-23,82.6,75.1,70.1,73.5,71.3,70.0,100,89,68,29.75,29.66,2,0,5,0.10
2013-7-24,74.6,70.8,63.1,71.8,66.8,62.0,98,88,68,29.91,29.67,2,0,9,0.02
2013-7-25,75.0,66.3,58.7,63.5,60.4,58.0,99,83,56,30.04,29.89,2,0,7,0.00
2013-7-26,80.5,68.6,57.3,67.8,61.8,57.0,100,81,51,30.05,29.93,1,0,4,0.00
2013-7-27,76.2,68.4,64.3,71.5,66.8,63.6,99,95,78,29.94,29.81,4,0,14,0.38
2013-7-28,77.1,69.2,60.3,67.0,63.5,58.5,100,84,57,30.02,29.78,2,0,5,0.25
2013-7-29,74.6,64.9,54.8,62.9,58.3,54.5,100,81,51,30.15,30.02,2,0,4,0.00
2013-7-30,78.8,69.0,59.4,66.3,62.4,58.8,100,82,54,30.19,30.08,1,0,4,0.00
2013-7-31,71.4,66.9,64.0,68.3,65.7,63.1,99,96,87,30.09,29.90,1,0,3,0.07
2013-8-1,79.9,70.7,65.4,72.1,68.0,65.3,100,92,72,29.91,29.81,2,0,4,0.10
2013-8-2,79.7,70.3,62.1,67.9,64.5,61.8,100,84,57,29.97,29.88,1,0,4,0.00
2013-8-3,75.7,68.7,64.1,69.6,66.6,63.4,99,93,78,29.96,29.91,0,0,3,0.02
2013-8-4,75.3,68.9,59.3,67.5,63.3,58.2,100,84,59,30.05,29.92,2,0,9,0.00
2013-8-5,77.5,66.4,56.2,62.7,58.2,52.3,100,78,43,30.07,29.93,2,0,5,0.00
2013-8-6,82.3,71.5,62.3,68.3,63.5,59.2,98,79,49,29.96,29.89,2,0,6,0.00
2013-8-7,85.8,73.1,64.3,75.9,69.3,63.8,99,89,66,29.93,29.86,3,0,10,0.01
2013-8-8,81.2,73.9,69.1,76.8,72.6,68.8,100,96,80,29.93,29.86,1,0,4,1.10
2013-8-9,81.0,75.0,72.0,75.4,73.0,71.7,100,94,77,29.96,29.86,3,0,7,0.56
2013-8-10,81.3,74.5,70.9,74.1,71.7,68.7,100,92,67,30.03,29.94,2,0,6,0.55
2013-8-11,82.6,74.9,69.6,74.1,71.2,69.3,100,89,65,30.04,29.94,1,0,4,0.00
2013-8-12,82.7,75.1,69.9,74.6,71.4,68.0,100,89,62,30.00,29.81,1,0,4,0.00
2013-8-13,76.1,71.2,65.3,73.5,69.7,62.6,100,95,83,29.91,29.76,3,0,13,0.67
2013-8-14,66.7,62.3,58.8,63.4,59.2,56.2,91,89,87,29.95,29.89,1,0,6,0.00
2013-8-15,74.0,63.0,52.8,61.5,57.2,52.5,99,83,59,30.14,30.02,2,0,5,0.00
2013-8-16,78.3,67.3,56.6,63.0,59.6,56.4,100,79,50,30.09,30.02,1,0,4,0.00
2013-8-17,75.2,66.8,57.7,66.7,61.9,57.4,100,86,60,30.16,30.08,1,0,2,0.00
2013-8-18,72.5,68.0,64.5,70.0,66.9,64.2,100,97,88,30.14,30.07,1,0,3,0.05
2013-8-19,78.9,70.9,64.3,68.8,67.2,63.7,100,89,66,30.08,30.01,2,0,6,0.00
2013-8-20,81.2,70.2,61.2,69.9,65.3,61.2,100,86,60,30.14,30.05,1,0,4,0.00
2013-8-21,81.3,71.7,64.5,75.8,69.0,64.5,100,92,73,30.13,30.02,1,0,5,0.80
2013-8-22,67.0,63.6,62.1,67.0,63.5,62.1,100,100,99,30.08,30.05,1,0,2,0.01
2013-8-23,77.5,69.4,64.0,71.4,67.1,63.7,100,93,75,30.09,29.93,1,0,5,0.43
2013-8-24,79.7,69.0,60.2,66.8,62.8,59.0,100,83,50,30.23,30.09,1,0,4,0.00
2013-8-25,79.7,69.6,61.2,68.4,63.5,60.4,100,83,52,30.33,30.19,1,0,4,0.00
2013-8-26,81.7,69.7,59.4,70.0,64.7,59.2,100,86,59,30.24,30.02,1,0,3,0.00
2013-8-27,82.2,73.5,66.1,75.4,70.7,65.5,100,91,77,30.03,29.90,1,0,3,0.00
2013-8-28,80.5,75.0,71.2,76.3,73.7,70.9,100,96,83,29.93,29.75,3,0,10,1.68
2013-8-29,83.4,76.1,71.1,74.7,72.9,70.8,100,91,70,29.94,29.82,2,0,6,0.02
2013-8-30,84.3,75.2,67.6,76.4,71.8,67.6,100,90,69,29.95,29.80,1,0,3,0.00
2013-8-31,82.0,73.8,68.5,75.3,71.2,68.5,100,92,71,29.87,29.74,2,0,5,0.01
2013-9-1,77.3,72.7,68.5,74.7,71.2,68.1,100,95,85,29.81,29.73,1,0,2,0.01
2013-9-2,82.5,73.3,67.4,74.4,70.6,67.4,100,92,70,29.81,29.71,2,0,5,0.01
2013-9-3,77.1,70.3,60.4,69.9,65.7,59.8,99,86,61,29.99,29.76,3,0,7,0.00
2013-9-4,74.3,64.0,57.1,64.9,60.4,57.0,100,89,62,30.10,29.99,1,0,5,0.00
2013-9-5,78.6,66.3,56.2,68.2,62.2,56.2,100,88,64,30.13,30.05,2,0,6,0.00
2013-9-6,75.7,64.3,55.5,63.1,57.7,50.8,99,82,42,30.18,30.06,2,0,5,0.00
2013-9-7,77.8,64.1,52.6,65.1,57.6,52.3,100,83,46,30.08,29.94,1,0,4,0.00
2013-9-8,82.7,70.3,59.9,72.6,66.2,59.3,99,88,64,29.95,29.87,2,0,4,0.00
2013-9-9,85.2,74.0,65.4,72.5,69.2,65.4,100,87,60,30.04,29.95,2,0,4,0.00
2013-9-10,85.9,76.0,67.1,77.5,71.8,66.6,99,88,68,30.12,30.00,1,0,4,0.00
2013-9-11,84.8,74.1,69.5,75.9,72.4,69.5,100,95,72,30.13,29.97,4,0,9,0.06
2013-9-12,71.2,69.9,68.9,70.9,69.7,68.9,100,99,99,29.98,29.95,0,0,1,0.00
2013-9-13,68.1,63.8,57.2,67.6,58.2,51.7,99,83,59,29.99,29.72,3,1,9,0.02
2013-9-14,64.4,56.0,48.8,53.7,50.7,47.2,99,84,60,30.12,29.99,2,0,5,0.01
2013-9-15,74.1,60.6,48.6,65.5,56.4,48.3,100,88,60,30.15,30.02,2,0,5,0.00
2013-9-16,67.2,61.6,55.7,61.8,59.5,55.4,100,93,71,30.23,30.01,2,0,6,0.01
2013-9-17,73.1,61.9,53.3,61.2,56.5,53.0,100,85,53,30.31,30.15,2,0,4,0.00
2013-9-18,70.5,60.9,51.0,64.9,58.7,50.7,100,93,74,30.19,30.07,1,0,3,0.00
2013-9-19,75.3,68.3,63.3,68.9,65.8,63.0,100,92,79,30.09,29.97,1,0,3,0.00
2013-9-20,77.7,70.5,66.5,73.1,69.2,66.2,100,96,82,29.99,29.79,1,0,3,0.00
2013-9-21,70.9,65.3,60.5,69.0,64.4,60.5,100,97,89,29.80,29.64,3,0,9,0.00
2013-9-22,66.1,60.5,53.5,60.9,57.1,52.6,100,89,69,29.96,29.76,2,0,6,0.01
2013-9-23,64.3,55.4,48.1,53.2,50.6,47.3,100,85,63,30.07,29.95,2,0,9,0.00
2013-9-24,71.1,56.7,46.6,60.9,52.7,46.5,100,88,57,30.06,29.90,2,0,5,0.00
2013-9-25,73.2,62.0,53.2,66.8,59.5,53.2,100,92,68,29.91,29.80,0,0,2,0.00
2013-9-26,75.1,64.7,55.3,62.8,58.3,43.1,100,83,32,30.02,29.84,2,0,7,0.00
2013-9-27,74.6,61.1,51.1,60.3,54.9,51.1,100,83,45,30.13,30.01,1,0,5,0.00
2013-9-28,75.3,62.1,51.0,64.5,57.1,50.7,100,86,53,30.19,30.08,1,0,2,0.00
2013-9-29,73.8,61.5,51.1,63.3,56.9,50.4,100,86,58,30.09,29.97,2,0,4,0.00
2013-9-30,74.5,63.3,56.4,64.2,60.6,56.2,100,92,65,30.02,29.94,2,0,6,0.00
2013-10-1,75.7,64.6,56.2,65.4,60.7,56.2,100,89,61,30.08,29.98,1,0,4,0.87
2013-10-2,78.5,66.1,56.4,68.2,61.9,56.1,100,88,62,30.11,30.00,1,0,4,0.00
2013-10-3,79.8,67.7,59.1,68.7,63.9,59.1,100,89,59,30.07,29.97,1,0,3,0.00
2013-10-4,81.5,69.2,59.9,69.5,64.9,59.9,100,88,60,30.10,29.99,2,0,4,0.00
2013-10-5,81.9,70.4,61.1,71.2,66.5,61.1,100,89,63,30.07,29.91,1,0,4,0.00
2013-10-6,84.6,73.5,62.6,70.3,64.0,60.2,100,76,46,29.92,29.68,2,1,5,0.00
2013-10-7,75.1,59.1,48.3,64.7,53.7,46.8,98,84,57,30.12,29.64,4,1,10,0.00
2013-10-8,68.2,54.8,46.5,50.9,47.8,45.3,100,81,44,30.24,30.11,2,0,6,0.00
2013-10-9,70.3,55.4,44.7,51.8,46.3,39.0,100,77,32,30.25,30.11,2,0,4,0.00
2013-10-10,74.0,61.6,52.5,61.1,55.8,50.7,97,83,61,30.12,29.97,2,0,7,0.00
2013-10-11,59.4,58.6,57.4,57.5,57.2,56.6,97,95,93,29.98,29.95,0,0,2,0.00
2013-10-16,70.5,62.3,55.2,62.6,59.0,54.6,100,90,70,29.96,29.87,1,0,4,0.00
2013-10-17,69.1,60.4,52.6,65.4,59.3,51.1,100,96,85,29.93,29.65,6,0,18,0.00
2013-10-18,62.6,53.3,44.9,51.0,47.1,43.8,100,81,52,30.04,29.93,2,0,5,0.00
2013-10-19,57.2,48.0,42.0,53.0,46.5,41.7,100,95,84,29.97,29.78,3,0,9,0.00
2013-10-20,59.2,48.2,40.6,44.4,41.3,38.5,99,80,47,30.08,29.97,2,0,4,0.00
2013-10-21,68.4,50.1,37.0,49.1,40.7,36.7,100,76,32,30.08,29.86,2,0,5,0.00
2013-10-22,55.8,46.6,39.5,49.7,42.3,38.5,98,86,63,29.98,29.83,2,0,5,0.00
2013-10-23,45.5,40.7,38.6,44.9,40.0,37.8,100,98,93,29.99,29.72,3,0,9,0.00
2013-10-24,43.1,39.4,36.1,38.5,37.3,35.6,98,92,78,30.19,29.99,2,0,7,0.29
2013-10-25,44.8,37.5,31.3,36.9,34.3,30.5,99,89,67,30.40,30.19,1,0,4,0.00
2013-10-26,54.1,41.7,28.0,35.5,30.2,26.7,99,69,35,30.33,29.96,3,1,6,0.10
2013-10-27,58.6,48.7,38.9,42.3,38.2,32.3,95,68,47,30.09,29.99,2,0,6,0.00
2013-10-28,64.6,49.7,37.2,48.7,43.2,36.4,99,81,51,30.23,30.08,2,0,5,0.00
2013-10-29,65.2,53.0,43.8,53.7,47.4,43.2,100,83,52,30.32,30.18,2,0,5,0.00
2013-10-30,60.9,56.5,51.1,60.3,55.7,49.3,100,97,91,30.19,30.04,1,0,2,0.16
2013-10-31,70.8,62.8,57.0,62.5,58.2,56.0,100,87,60,30.06,29.48,6,1,12,0.03
2013-11-1,71.8,62.5,50.5,61.9,52.8,46.3,96,72,45,29.69,29.43,7,2,15,0.04
2013-11-2,60.7,52.1,44.1,48.3,44.9,39.3,98,78,47,29.97,29.65,5,1,14,0.03
2013-11-3,51.9,45.1,33.9,43.6,39.3,32.9,99,81,54,30.41,29.97,2,0,7,0.20
2013-11-4,60.6,45.2,31.5,40.1,34.5,30.8,99,71,37,30.47,30.34,2,0,4,0.00
2013-11-5,64.1,50.3,39.3,41.2,35.1,19.7,94,60,18,30.47,30.30,3,0,5,0.00
2013-11-6,75.5,62.6,41.3,53.5,49.9,35.2,94,66,44,30.31,29.89,4,2,11,0.00
2013-11-7,67.0,49.2,34.1,56.2,43.3,30.6,97,81,56,30.18,29.86,7,1,13,0.43
2013-11-8,49.4,39.6,30.6,34.8,31.1,28.5,94,73,46,30.32,30.16,3,1,10,0.00
2013-11-9,63.4,46.4,29.9,40.2,27.0,19.8,99,57,20,30.29,30.04,4,1,10,0.00
2013-11-10,56.0,47.4,32.1,39.9,32.4,27.7,88,57,41,30.31,30.05,6,2,17,0.00
2013-11-11,59.8,44.5,28.9,40.9,28.9,23.1,96,62,25,30.32,30.02,3,0,10,0.00
2013-11-12,52.5,34.7,28.1,43.0,31.5,24.5,96,88,58,30.54,30.02,5,1,14,0.08
2013-11-13,35.5,28.9,22.8,26.3,23.9,21.2,94,82,66,30.61,30.44,3,0,6,0.02
2013-11-14,26.7,24.9,23.8,24.4,23.2,22.3,94,93,91,30.45,30.42,0,0,0,0.00
2013-11-15,61.1,43.6,27.1,45.8,34.1,25.9,98,75,35,30.29,30.14,4,0,11,0.09
2013-11-16,65.9,54.5,42.7,55.6,49.6,42.4,100,85,64,30.21,30.00,2,0,5,0.01
2013-11-17,70.1,63.4,54.1,61.4,55.1,50.1,88,75,60,29.99,29.60,7,2,23,0.17
2013-11-18,60.3,52.9,42.0,50.5,38.8,31.2,85,60,39,30.07,29.77,6,2,16,0.00
2013-11-19,42.8,38.1,30.9,32.4,28.5,26.6,87,68,60,30.35,30.06,5,1,10,0.00
2013-11-20,57.0,41.0,28.2,31.7,25.6,20.2,93,59,25,30.39,30.26,4,1,9,0.00
2013-11-21,61.4,48.2,33.4,49.4,39.7,28.4,90,73,55,30.39,30.18,4,0,4,0.00
2013-11-22,60.1,55.5,45.1,57.9,53.0,44.1,99,92,71,30.20,30.05,12,1,12,0.37
2013-11-23,46.0,37.6,25.3,44.4,30.4,10.9,97,76,49,30.39,30.17,20,3,20,0.01
2013-11-24,29.0,22.9,17.2,13.6,10.8,7.7,84,60,43,30.59,30.38,15,2,16,0.00
2013-11-25,46.9,31.3,15.7,32.9,17.2,11.1,92,61,25,30.57,30.24,15,1,15,0.00
2013-11-26,40.8,38.0,35.0,40.5,37.4,32.9,99,98,82,30.24,29.71,5,0,6,1.27
2013-11-27,36.0,29.7,25.2,35.5,28.2,21.3,99,94,85,30.25,29.73,10,1,10,0.00
2013-11-28,33.9,27.5,20.7,27.4,23.5,19.0,95,85,66,30.47,30.23,4,0,5,0.08
2013-11-29,40.4,29.9,20.7,29.1,24.6,19.2,97,82,54,30.64,30.46,4,0,4,0.05
2013-11-30,52.3,34.1,21.5,36.4,26.6,20.0,97,78,40,30.56,30.22,5,0,6,0.01
2013-12-1,45.7,36.5,25.9,35.7,29.9,24.9,98,79,51,30.24,29.95,6,0,6,0.00
2013-12-2,54.7,43.2,36.7,39.9,36.5,35.1,96,79,52,29.96,29.77,5,0,6,0.00
2013-12-3,56.3,43.1,32.9,43.5,37.8,32.1,99,83,56,29.90,29.80,2,0,5,0.00
2013-12-4,67.3,51.9,37.1,49.8,44.1,36.3,98,77,53,29.96,29.82,3,1,7,0.00
2013-12-5,71.0,60.5,43.2,58.6,52.7,42.1,99,77,56,29.98,29.81,7,2,18,0.47
2013-12-6,43.6,37.3,32.5,42.3,36.5,31.5,98,97,95,30.25,29.97,4,1,18,1.72
2013-12-7,33.1,29.1,25.1,32.1,27.1,22.2,97,92,85,30.55,30.22,3,1,7,0.01
2013-12-8,33.6,30.3,24.8,33.3,29.4,22.3,99,96,89,30.53,30.00,3,0,5,0.33
2013-12-9,40.4,36.3,33.0,40.3,35.3,29.4,100,96,85,30.18,29.98,7,1,7,0.38
2013-12-10,33.2,29.5,25.5,30.7,25.1,18.3,97,84,68,30.33,30.03,5,1,11,0.01
2013-12-11,37.9,28.7,19.1,24.8,20.4,16.1,92,72,53,30.43,30.27,11,1,14,0.05
2013-12-12,29.4,23.6,18.1,21.8,12.7,8.2,82,63,44,30.52,30.36,9,1,12,0.00
2013-12-13,40.9,29.3,18.1,25.4,16.2,11.6,85,60,34,30.37,30.22,7,1,7,0.01
2013-12-14,48.2,39.4,29.2,42.9,35.9,23.9,99,88,75,30.24,29.66,13,1,14,0.25
2013-12-15,42.7,32.5,29.0,41.4,29.8,25.4,96,90,81,30.08,29.66,13,2,15,0.04
2013-12-16,33.1,30.4,28.2,30.7,28.0,25.3,97,91,84,30.16,30.03,7,0,7,0.01
2013-12-17,41.1,35.9,29.9,38.1,33.8,27.4,98,92,84,30.11,29.92,13,1,13,0.27
2013-12-18,38.4,31.4,25.7,27.8,24.7,21.7,92,77,57,30.24,30.10,11,1,11,0.01
2013-12-19,60.2,40.9,24.5,34.7,27.6,22.9,95,65,27,30.20,30.03,11,1,11,0.00
2013-12-20,61.7,52.7,37.3,51.0,38.2,27.6,85,60,34,30.06,29.90,7,1,11,0.01
2013-12-21,71.6,65.5,58.3,58.6,53.2,48.6,80,65,52,29.91,29.63,11,2,13,0.03
2013-12-22,70.8,60.1,53.4,59.8,54.1,50.8,96,81,63,29.94,29.61,19,2,19,0.38
2013-12-23,58.5,40.2,30.5,52.4,37.5,24.4,98,90,77,30.31,29.91,8,2,14,0.20
2013-12-24,31.3,25.5,14.4,26.3,18.6,8.9,93,76,49,30.54,30.26,11,2,16,0.00
2013-12-25,39.6,22.9,13.4,25.3,15.3,11.0,94,76,34,30.53,30.19,3,0,6,0.00
2013-12-26,41.5,33.8,23.5,28.2,24.1,20.3,92,69,45,30.38,30.19,4,1,10,0.00
2013-12-27,47.5,31.5,20.7,28.2,21.8,19.2,95,72,34,30.45,30.32,3,0,6,0.00
2013-12-28,53.5,36.8,21.9,34.3,25.1,20.4,95,68,32,30.37,29.99,2,0,6,0.00
2013-12-29,43.2,39.4,35.3,43.0,38.4,31.5,100,96,80,30.06,29.68,4,1,13,0.74
2013-12-30,40.8,32.2,29.2,38.8,29.9,26.0,97,91,83,30.17,29.90,4,1,9,0.02
2013-12-31,31.9,28.0,20.7,28.2,22.7,19.5,95,81,66,30.36,30.15,4,1,16,0.00
2014-1-1,50.8,32.5,20.4,30.3,25.4,19.0,97,79,42,30.37,29.98,2,0,4,0.00
2014-1-2,37.7,28.7,14.2,36.6,27.5,11.8,98,95,89,30.10,29.63,6,1,15,0.13